Regional Weather Roundup
Issued by NWS Newport/Morehead, NC

Current Version | Previous Version | Graphics & Text | Print | Product List | Glossary On
Versions: 1 2 3 4 5 6 7 8 9 10 11 12 13 14 15 16 17 18 19 20 21 22 23 24 25 26 27 28 29 30 31 32 33 34 35 36 37 38 39 40 41 42 43 44 45 46 47 48 49 50
000 ASUS42 KMHX 291925 RWRMHX WEATHER ROUNDUP FOR EASTERN NORTH CAROLINA NATIONAL WEATHER SERVICE NEWPORT/MOREHEAD CITY NC 300 PM EDT SUN MAY 29 2016 NOTE: "FAIR" INDICATES FEW OR NO CLOUDS BELOW 12,000 FEET WITH NO SIGNIFICANT WEATHER AND/OR OBSTRUCTIONS TO VISIBILITY NCZ015>017-031-032-045>047-102-103-292000- NORTH COAST CITY SKY/WX TMP DP RH WIND PRES REMARKS EDENTON RAIN N/A N/A N/A SE3 30.08F ELIZABETH CITY HVY RAIN 73 71 93 W6 30.09S VSB 3/4 KITTY HAWK PTCLDY 85 71 63 S10G18 30.07F MANTEO NOT AVBL $$ NCZ045>047-081-094-103-104-292000- CENTRAL COAST CITY SKY/WX TMP DP RH WIND PRES REMARKS FRISCO HVY RAIN 75 71 87 SW12G25 30.10S FOG $$ NCZ095-097-098-100-101-292000- SOUTHERN COAST CITY SKY/WX TMP DP RH WIND PRES REMARKS BEAUFORT SUNNY 81 74 79 S15 30.06F CEDAR ISLAND NOT AVBL JACKSONVILLE PTSUNNY 82 72 71 SE17G24 30.02F PINEY ISLAND MOCLDY N/A N/A N/A S20G26 30.06F WILMINGTON MOSUNNY 79 72 79 SE13G22 30.00F $$ NCZ011>013-027>030-043-044-078>080-089-090>093-098-292000- COASTAL PLAIN CITY SKY/WX TMP DP RH WIND PRES REMARKS AHOSKIE LGT RAIN 74 72 93 SE5 30.06F CLINTON CLOUDY 83 74 73 E5 30.00S ELIZABETHTOWN MOSUNNY 81 72 74 SE8 29.99S GOLDSBORO PTSUNNY 84 78 80 E13 29.99F GREENVILLE MOSUNNY 81 75 83 SE6 30.04F HAVELOCK PTSUNNY 84 73 69 SE15G22 30.06F KENANSVILLE MOSUNNY 84 69 60 SE8G17 30.01F HAZE KINSTON MOSUNNY 84 70 61 SE14 30.02F NEW BERN MOSUNNY 85 70 60 S15G21 30.05F RICHLANDS CLOUDY 82 73 74 SE14 30.02F ROCKY MOUNT MOSUNNY 82 74 76 VRB7 30.04F WASHINGTON LGT RAIN 77 73 89 NE3 30.03F WHITEVILLE LGT RAIN 80 73 77 E10G16 29.97F $$ AMZ130-135-150-152-154-156-158-170-250-252-270-ANZ085-086-088-633-658-670-292000- MARINE OBSERVATIONS STATION/POSITION TIME TEMP WIND PRES WAVE SWELL AIR SEA DIR/SP/G HT/PER HT/PER (UTC) (F) (DEG/KT/KT) (MB) (FT/S) (FT/S) CHESAPEAKE LIGHT 1900 72 140/ 15/ 18 1019.8 64 E VA BEACH 1850 68 65 150/ 6/ 6 1019.6 4/ 8 3/ 8 DUCK 1900 74 60 130/ 15/ 17 1017.9 2 E DUCK 1811 68 N/A 3/ 8 OREGON INLET 1900 81 75 150/ 12/ 18 1018.9 13E OREGON INLT 1800 70 N/A 4/ 8 3/ 8 HATTERAS CG 1900 74 77 150/ 8/ 11 1018.3 DIAMOND BUOY 1850 79 75 160/ 17/ 19 1018.6 6/ 8 2/15 CAPE LOOKOUT 1900 77 140/ 11/ 12 1017.4 BEAUFORT LAB 1900 80 75 160/ 11/ 14 1016.9 30 SE NEW RVR IN 1825 75 N/A 6/ 8 27 SE WRIGHTSVLE 1908 78 76 160/ 16/ 23 1016.4 5 SE WRIGHTSVLE 1908 75 75 150/ 14/ 19 1016.5 225 S CAPE HAT 1850 76 76 130/ 12/ 16 1019.0 4/ 8 3/ 8 41 SE CHARLESTON 1850 74 78 190/ 21/ 23 1013.0 6/ 8 2/11 $$

USA.gov is the U.S. government's official web portal to all federal, state and local government web resources and services.